Westhampton Beach, NY

10:22 PM EST on January 22, 2018 (GMT -0500)
The Gabreski

Weather History for KFOK - December, 2013

Change the Weather History Date:

Monday, December 23, 2013

  Actual Average Record
Temperature  
Mean Temperature 48 °F -  
Max Temperature 55 °F 40 °F 63 °F (2015)
Min Temperature 41 °F 23 °F 8 °F (2008)
Degree Days  
Heating Degree Days 16    
Moisture  
Dew Point 49 °F    
Average Humidity 91    
Maximum Humidity 100    
Minimum Humidity 76    
Precipitation  
Precipitation 0.52 in - - ()
Sea Level Pressure  
Sea Level Pressure 30.01 in    
Wind  
Wind Speed 6 mph (West)    
Max Wind Speed 17 mph    
Max Gust Speed 24 mph    
Visibility 6 miles    
Events Fog , Rain    
Averages and records for this station are not official NWS values.
T = Trace of Precipitation, MM = Missing Value Source: NWS Daily Summary

Daily Weather History Graph

Daily Weather History Graph

Search for Another Location

Airport or City:

Trip Planner

Search our weather history database for the weather conditions in past years. The results will help you decide how hot, cold, wet, or windy it might be!

Date:

Astronomy

Dec. 23, 2013 Rise Set
Actual Time 7:12 AM EST 4:27 PM EST
Civil Twilight 6:41 AM EST 4:58 PM EST
Nautical Twilight 6:06 AM EST 5:32 PM EST
Astronomical Twilight 5:33 AM EST 6:06 PM EST
Moon 10:36 PM EST 10:34 AM EST
Length of Visible Light 10h 16m
Length of Day
9h 14m
Waning Gibbous, 68% of the Moon is Illuminated
Dec 23
Waning Gibbous
Dec 25
Last Quarter
Jan 1
New
Jan 7
First Quarter
Jan 15
Full

Hourly Weather History & Observations

Time (EST) Temp. Windchill Dew Point Humidity Pressure Visibility Wind Dir Wind Speed Gust Speed Precip Events Conditions
12:53 AM 55.0 °F - 51.1 °F 86% 29.99 in 10.0 mi SSW 4.6 mph - N/A   Clear
1:53 AM 55.0 °F - 51.1 °F 86% 30.00 in 10.0 mi SSW 6.9 mph - N/A   Scattered Clouds
2:53 AM 55.9 °F - 51.1 °F 84% 30.00 in 10.0 mi SW 6.9 mph - 0.00 in   Overcast
3:53 AM 54.0 °F - 50.0 °F 86% 30.01 in 9.0 mi SW 6.9 mph - 0.00 in   Overcast
4:51 AM 53.6 °F - 50.0 °F 88% 30.01 in 9.0 mi WSW 6.9 mph - 0.00 in   Mostly Cloudy
4:53 AM 54.0 °F - 51.1 °F 90% 30.01 in 9.0 mi SW 8.1 mph - 0.00 in   Mostly Cloudy
5:53 AM 54.0 °F - 51.1 °F 90% 30.01 in 10.0 mi SW 5.8 mph - N/A   Overcast
6:53 AM 54.0 °F - 51.1 °F 90% 30.01 in 10.0 mi SW 4.6 mph - 0.00 in   Overcast
7:53 AM 54.0 °F - 52.0 °F 93% 30.02 in 9.0 mi South 3.5 mph - 0.00 in Rain Light Rain
8:28 AM 53.6 °F - 51.8 °F 94% 30.02 in 4.0 mi Calm Calm - 0.02 in Rain Light Rain
8:32 AM 53.6 °F - 51.8 °F 94% 30.02 in 2.0 mi South 3.5 mph - 0.02 in Rain Light Rain
8:53 AM 53.1 °F - 51.1 °F 93% 30.02 in 2.0 mi SSE 3.5 mph - 0.03 in Rain Light Rain
9:00 AM 53.6 °F - 51.8 °F 94% 30.02 in 3.0 mi Calm Calm - 0.00 in Rain Light Rain
9:17 AM 53.6 °F - 50.0 °F 88% 30.04 in 2.0 mi South 3.5 mph - 0.03 in Rain Rain
9:24 AM 53.6 °F - 50.0 °F 88% 30.03 in 1.5 mi WSW 3.5 mph - 0.05 in Rain Rain
9:36 AM 53.6 °F - 50.0 °F 88% 30.04 in 2.0 mi Variable 4.6 mph - 0.08 in Rain Rain
9:43 AM 53.6 °F - 50.0 °F 88% 30.03 in 1.2 mi WSW 4.6 mph - 0.11 in Rain Rain
9:53 AM 53.1 °F - 51.1 °F 93% 30.01 in 2.5 mi Calm Calm - 0.13 in Rain Light Rain
10:02 AM 53.6 °F - 51.8 °F 94% 30.00 in 4.0 mi Calm Calm - 0.01 in Rain Light Rain
10:19 AM 53.6 °F - 51.8 °F 94% 30.01 in 7.0 mi Calm Calm - 0.02 in Rain Light Rain
10:26 AM 53.6 °F - 51.8 °F 94% 30.01 in 2.0 mi Calm Calm - 0.03 in Rain Light Rain
10:53 AM 55.0 °F - 52.0 °F 89% 30.00 in 2.0 mi WSW 4.6 mph - 0.04 in Rain Light Rain
11:53 AM 55.0 °F - 54.0 °F 96% 29.95 in 2.0 mi SSW 4.6 mph - 0.01 in   Overcast
12:00 PM 55.4 °F - 53.6 °F 94% 29.95 in 0.5 mi South 3.5 mph - 0.00 in Fog , Rain Light Rain
12:09 PM 55.4 °F - 53.6 °F 94% 29.94 in 0.2 mi South 4.6 mph - 0.01 in Fog , Rain Light Rain
12:53 PM 53.1 °F - 51.1 °F 93% 29.91 in 0.2 mi SE 6.9 mph - 0.01 in Fog , Rain Light Rain
1:51 PM 53.6 °F - 51.8 °F 94% 29.92 in 0.5 mi SSW 10.4 mph - 0.01 in Fog , Rain Light Rain
1:53 PM 54.0 °F - 52.0 °F 93% 29.92 in 0.5 mi SSW 9.2 mph 16.1 mph 0.01 in Fog , Rain Light Rain
2:22 PM 53.6 °F - 53.6 °F 100% 29.91 in 1.5 mi WSW 12.7 mph 19.6 mph 0.05 in Rain Rain
2:31 PM 55.4 °F - 53.6 °F 94% 29.93 in 2.5 mi West 17.3 mph 21.9 mph 0.07 in Rain Rain
2:39 PM 53.6 °F - 51.8 °F 94% 29.93 in 5.0 mi WSW 12.7 mph 21.9 mph 0.08 in Rain Rain
2:53 PM 55.0 °F - 53.1 °F 93% 29.94 in 3.0 mi WSW 8.1 mph - 0.12 in Rain Rain
3:04 PM 55.4 °F - 53.6 °F 94% 29.93 in 2.5 mi Calm Calm - 0.03 in Rain Rain
3:11 PM 55.4 °F - 55.4 °F 100% 29.94 in 6.0 mi Calm Calm - 0.03 in Rain Light Rain
3:36 PM 51.8 °F - 50.0 °F 94% 29.95 in 5.0 mi North 6.9 mph - 0.05 in Rain Rain
3:53 PM 51.1 °F - 48.0 °F 89% 29.97 in 6.0 mi North 9.2 mph - 0.07 in Rain Rain
4:06 PM 50.0 °F - 48.2 °F 94% 29.99 in 6.0 mi North 10.4 mph - 0.01 in Rain Light Rain
4:27 PM 50.0 °F - 48.2 °F 94% 30.00 in 10.0 mi NNE 12.7 mph - 0.02 in   Overcast
4:53 PM 50.0 °F - 48.0 °F 93% 30.01 in 4.0 mi North 9.2 mph - 0.03 in Rain Rain
5:07 PM 50.0 °F - 46.4 °F 87% 30.01 in 10.0 mi North 10.4 mph - 0.00 in Rain Light Rain
5:20 PM 50.0 °F - 46.4 °F 87% 30.04 in 10.0 mi North 5.8 mph - 0.00 in   Overcast
5:53 PM 48.9 °F - 46.9 °F 93% 30.03 in 8.0 mi NNE 8.1 mph - 0.02 in Rain Light Rain
6:53 PM 48.9 °F - 46.9 °F 93% 30.04 in 10.0 mi Calm Calm - 0.01 in   Overcast
7:53 PM 48.9 °F - 46.9 °F 93% 30.07 in 10.0 mi Calm Calm - 0.00 in Rain Light Rain
8:20 PM 48.2 °F - 46.4 °F 93% 30.06 in 9.0 mi Calm Calm - 0.00 in   Overcast
8:31 PM 48.2 °F - 46.4 °F 93% 30.06 in 7.0 mi NNW 3.5 mph - 0.00 in   Overcast
8:53 PM 48.9 °F - 46.0 °F 90% 30.08 in 1.8 mi NW 8.1 mph - 0.00 in Rain Light Rain
9:05 PM 48.2 °F - 46.4 °F 93% 30.07 in 3.0 mi NNW 13.8 mph - 0.02 in Rain Light Rain
9:19 PM 46.4 °F 39.8 °F 42.8 °F 87% 30.09 in 6.0 mi North 16.1 mph 24.2 mph 0.02 in Rain Light Rain
9:34 PM 44.6 °F 38.4 °F 41.0 °F 87% 30.09 in 10.0 mi North 12.7 mph - 0.02 in Rain Light Rain
9:53 PM 44.1 °F 38.6 °F 39.9 °F 85% 30.11 in 9.0 mi North 10.4 mph - 0.03 in Rain Light Rain
10:00 PM 42.8 °F 36.6 °F 39.2 °F 87% 30.11 in 10.0 mi North 11.5 mph - 0.00 in Rain Light Rain
10:53 PM 42.1 °F 35.2 °F 37.0 °F 82% 30.10 in 10.0 mi North 12.7 mph - 0.00 in   Overcast
11:30 PM 42.8 °F 36.6 °F 35.6 °F 76% 30.10 in 10.0 mi North 11.5 mph - 0.00 in Rain Light Rain
11:53 PM 41.0 °F 32.5 °F 35.1 °F 79% 30.09 in 10.0 mi North 17.3 mph 24.2 mph 0.01 in   Overcast